GW2156 Weather Reports


time (UTC)temp
F
wind
direction
speed
knots
gust
knots
rain 1hr
in
rain 24hr
in
rain mn
in
humidity
%
barometer
mb
20260505153122 52 71 7.8 10.4 0.00 0.00 0.00 90 1016.3
20260505152123 52 75 7.8 10.4 0.00 0.00 0.00 88 1016.3
20260505151122 52 80 8.7 12.2 0.00 0.00 0.00 89 1016.2
20260505150202 53 94 7.0 11.3 0.00 0.00 0.00 87 1016.3
20260505140122 54 91 4.3 7.8 0.00 0.00 0.00 83 1016.3
20260505130202 54 89 4.3 7.8 0.00 0.00 0.00 81 1016.4
20260505124121 53 89 6.1 8.7 0.00 0.00 0.00 83 1016.3
20260505123122 53 90 6.1 10.4 0.00 0.00 0.00 82 1016.3
20260505122121 54 87 7.0 12.2 0.00 0.00 0.00 80 1016.3
20260505121122 54 94 6.1 11.3 0.00 0.00 0.00 78 1016.4
20260505120142 54 77 7.0 10.4 0.00 0.00 0.00 74 1016.4
20260505115121 56 64 6.1 8.7 0.00 0.00 0.00 65 1016.4
20260505114121 55 33 6.1 9.6 0.00 0.00 0.00 62 1016.3
20260505113121 55 6 5.2 7.8 0.00 0.00 0.00 63 1016.5
20260505112121 54 15 7.0 11.3 0.00 0.00 0.00 67 1016.5
20260505111125 54 351 7.8 9.6 0.00 0.00 0.00 66 1016.5
20260505110125 54 345 6.1 8.7 0.00 0.00 0.00 67 1016.6
20260505102126 54 34 5.2 8.7 0.00 0.00 0.00 65 1016.7
20260505101125 54 359 6.1 8.7 0.00 0.00 0.00 67 1016.7
20260505100125 54 22 7.8 11.3 0.00 0.00 0.00 66 1016.7
20260505095145 53 17 7.8 12.2 0.00 0.00 0.00 67 1016.8
20260505094145 53 14 7.8 12.2 0.00 0.00 0.00 69 1016.8
20260505093125 53 2 8.7 11.3 0.00 0.00 0.00 70 1016.8
20260505092125 53 6 8.7 11.3 0.00 0.00 0.00 69 1016.8
20260505091125 53 9 10.4 13.0 0.00 0.00 0.00 64 1016.7
20260505090124 53 359 9.6 12.2 0.00 0.00 0.00 69 1016.6
20260505085125 53 350 7.0 10.4 0.00 0.00 0.00 72 1016.7
20260505084125 53 2 7.8 12.2 0.00 0.00 0.00 69 1016.7
20260505083124 52 2 7.8 11.3 0.00 0.00 0.00 71 1016.8
20260505082124 52 1 8.7 11.3 0.00 0.00 0.00 71 1016.8
20260505081305 52 346 8.7 13.0 0.00 0.00 0.00 70 1016.8
20260505080124 52 350 7.8 10.4 0.00 0.00 0.00 66 1016.8
20260505075124 52 359 8.7 11.3 0.00 0.00 0.00 67 1016.7
20260505074144 51 347 7.8 9.6 0.00 0.00 0.00 76 1016.7
20260505073124 52 335 8.7 11.3 0.00 0.00 0.00 76 1016.7
20260505072125 52 351 7.8 12.2 0.00 0.00 0.00 74 1016.7
20260505071124 52 355 8.7 13.9 0.00 0.00 0.00 68 1016.7
20260505070125 52 1 6.1 8.7 0.00 0.00 0.00 74 1016.7
20260505065124 52 356 8.7 11.3 0.00 0.00 0.00 72 1016.8
20260505064144 50 346 6.1 9.6 0.00 0.00 0.00 86 1016.8
20260505063125 49 342 7.8 10.4 0.00 0.00 0.00 95 1016.8
20260505062124 48 344 7.0 9.6 0.00 0.00 0.00 99 1016.9
20260505061125 48 338 7.0 9.6 0.00 0.00 0.00 100 1016.8
20260505060124 48 340 7.0 9.6 0.00 0.00 0.00 100 1016.9
20260505055124 47 324 7.0 9.6 0.00 0.00 0.00 100 1016.9
20260505054144 47 301 7.0 8.7 0.00 0.00 0.00 100 1016.8
20260505053124 47 299 6.1 9.6 0.00 0.00 0.00 100 1016.8
20260505052124 47 307 5.2 7.0 0.00 0.00 0.00 100 1016.8
20260505051124 48 300 6.1 8.7 0.00 0.00 0.00 100 1016.7
20260505050144 48 329 7.0 8.7 0.00 0.00 0.00 100 1016.7
20260505041130 47 302 7.0 11.3 0.00 0.00 0.00 100 1016.6
20260505040110 47 310 5.2 6.1 0.00 0.00 0.00 100 1016.6
20260505035110 47 298 7.0 10.4 0.00 0.00 0.00 100 1016.6
20260505034110 47 306 6.1 7.8 0.00 0.00 0.00 100 1016.7
20260505033130 47 296 7.0 12.2 0.00 0.00 0.00 100 1016.7
20260505032110 47 313 6.1 8.7 0.00 0.00 0.00 99 1016.7
20260505031129 47 311 5.2 7.0 0.00 0.00 0.00 98 1016.7
20260505030110 48 314 5.2 8.7 0.00 0.00 0.00 98 1016.7
20260505025109 48 323 7.0 11.3 0.00 0.00 0.00 98 1016.7
20260505024109 48 343 7.0 10.4 0.00 0.00 0.00 100 1016.7
20260505023134 48 326 6.1 8.7 0.00 0.00 0.00 100 1016.7
20260505022113 48 319 6.1 7.8 0.00 0.00 0.00 100 1016.7
20260505021113 48 327 9.6 13.0 0.00 0.00 0.00 100 1016.7
20260505020133 49 325 7.0 10.4 0.00 0.00 0.00 100 1016.7
20260505015115 49 325 7.0 8.7 0.00 0.00 0.00 100 1016.8
20260505014133 50 336 7.0 9.6 0.00 0.00 0.00 100 1016.8
20260505013113 50 336 7.0 8.7 0.00 0.00 0.00 100 1016.9
20260505012113 50 327 5.2 7.0 0.00 0.00 0.00 100 1017.0
20260505011113 49 312 5.2 6.1 0.00 0.00 0.00 100 1017.0
20260505010113 50 312 6.1 7.0 0.00 0.00 0.00 100 1017.0
20260505005153 50 308 4.3 6.1 0.00 0.00 0.00 100 1017.0
20260505004113 51 307 4.3 6.1 0.00 0.00 0.00 100 1017.0
20260505003133 51 327 4.3 5.2 0.00 0.00 0.00 100 1017.1
20260505002113 51 329 4.3 5.2 0.00 0.00 0.00 99 1017.1
20260505001113 51 317 4.3 5.2 0.00 0.00 0.00 97 1017.2
20260505000113 51 317 4.3 5.2 0.00 0.00 0.00 96 1017.2
20260504235113 52 335 4.3 5.2 0.00 0.00 0.00 95 1017.2
20260504234113 52 351 4.3 6.1 0.00 0.00 0.00 95 1017.2
20260504233133 51 344 3.5 5.2 0.00 0.00 0.00 96 1017.2
20260504232113 52 347 3.5 4.3 0.00 0.00 0.00 96 1017.2
20260504231113 51 356 3.5 4.3 0.00 0.00 0.00 96 1017.1
20260504230132 51 10 3.5 5.2 0.00 0.00 0.00 97 1017.2
20260504225132 52 357 3.5 5.2 0.00 0.00 0.00 97 1017.2
20260504224112 52 1 3.5 4.3 0.00 0.00 0.00 97 1017.3
20260504223113 52 351 3.5 5.2 0.00 0.00 0.00 95 1017.3
20260504222112 52 357 2.6 4.3 0.00 0.00 0.00 95 1017.3
20260504221112 51 3 3.5 4.3 0.00 0.00 0.00 95 1017.4
20260504220112 51 25 2.6 3.5 0.00 0.00 0.00 95 1017.5
20260504215112 51 27 2.6 3.5 0.00 0.00 0.00 95 1017.5
20260504214132 51 25 2.6 4.3 0.00 0.00 0.00 94 1017.5
20260504213132 51 28 2.6 4.3 0.00 0.00 0.00 94 1017.4
20260504212112 51 37 2.6 3.5 0.00 0.00 0.00 93 1017.4
20260504211112 51 42 2.6 4.3 0.00 0.00 0.00 93 1017.4
20260504210112 51 44 2.6 4.3 0.00 0.00 0.00 91 1017.4
20260504205112 52 40 2.6 4.3 0.00 0.00 0.00 90 1017.3
20260504204112 52 27 3.5 5.2 0.00 0.00 0.00 90 1017.3
20260504203112 52 30 3.5 5.2 0.00 0.00 0.00 90 1017.2
20260504202111 52 43 3.5 6.1 0.00 0.00 0.00 90 1017.1
20260504201111 52 30 2.6 4.3 0.00 0.00 0.00 88 1017.1
20260504200152 52 43 3.5 4.3 0.00 0.00 0.00 87 1017.0
20260504195112 52 31 3.5 5.2 0.00 0.00 0.00 87 1017.0
20260504194111 52 38 4.3 5.2 0.00 0.00 0.00 87 1016.9
20260504193111 52 17 4.3 6.1 0.00 0.00 0.00 88 1016.9
20260504192112 53 44 3.5 4.3 0.00 0.00 0.00 87 1016.8
20260504191111 53 28 3.5 5.2 0.00 0.00 0.00 86 1016.8
20260504190112 53 27 3.5 5.2 0.00 0.00 0.00 86 1016.8
20260504185111 53 20 4.3 5.2 0.00 0.00 0.00 86 1016.7
20260504184112 53 37 3.5 4.3 0.00 0.00 0.00 87 1016.6
20260504183111 53 36 3.5 5.2 0.00 0.00 0.00 93 1016.6
20260504182131 53 66 4.3 6.1 0.00 0.00 0.00 98 1016.6
20260504181131 53 78 5.2 7.8 0.00 0.00 0.00 98 1016.6
20260504180131 53 76 6.1 8.7 0.00 0.00 0.00 98 1016.5
20260504175111 53 76 6.1 8.7 0.00 0.00 0.00 97 1016.6
20260504174111 53 71 7.0 9.6 0.00 0.00 0.00 97 1016.5
20260504173111 53 70 6.1 7.8 0.00 0.00 0.00 97 1016.6
20260504172111 54 63 7.0 11.3 0.00 0.00 0.00 96 1016.5
20260504171111 54 72 7.0 8.7 0.00 0.00 0.00 100 1016.6
20260504170112 53 73 7.0 9.6 0.00 0.00 0.00 100 1016.6
20260504160110 55 72 7.0 10.4 0.00 0.00 0.00 97 1016.5